Location: Eurasberg
(48.3353°N, 11.0839°E)
Time: 19:28:39
(UTC+00:00)

Cosmos 841 Rocket - Pass Details

Date: 18 January 2026
Orbit: 743 x 766 km, 74.0° (Epoch: 13 February)

Event Time Altitude Azimuth Distance (km) Brightness Sun altitude
Exits shadow 06:14:05 -1° 337° (NNW) 3,290 6.3 -7.6°
Rises 06:14:16 0° 337° (NNW) 3,214 6.3 -7.6°
Reaches altitude 10° 06:16:39 10° 337° (NNW) 2,281 5.5 -7.2°
Maximum altitude 06:21:50 88° 66° (ENE) 754 3.5 -6.4°
Drops below altitude 10° 06:26:57 10° 158° (SSE) 2,254 6.7 -5.6°
Sets 06:29:17 0° 159° (SSE) 3,172 7.5 -5.3°
